FW0860 Weather Reports


Display with metric or nautical units.
time (UTC)temp
F
wind
direction
speed
MPH
gust
MPH
rain 1hr
in
rain 24hr
in
rain mn
in
humidity
%
barometer
mb
20260502180832 89 94 4.0 11.0 0.00 0.00 0.00 25 1013.7
20260502180734 89 108 3.0 10.0 0.00 0.00 0.00 26 1013.7
20260502180617 88 79 4.0 10.0 0.00 0.00 0.00 26 1013.7
20260502180523 88 129 4.0 10.0 0.00 0.00 0.00 26 1013.7
20260502180432 88 128 3.0 10.0 0.00 0.00 0.00 26 1013.7
20260502180333 88 121 2.0 10.0 0.00 0.00 0.00 26 1013.7
20260502180235 89 123 2.0 11.0 0.00 0.00 0.00 26 1013.7
20260502180117 89 100 3.0 11.0 0.00 0.00 0.00 26 1013.7
20260502170420 85 134 2.0 10.0 0.00 0.00 0.00 29 1013.9
20260502170322 85 117 3.0 10.0 0.00 0.00 0.00 29 1013.9
20260502170250 85 119 4.0 10.0 0.00 0.00 0.00 29 1013.9
20260502170132 85 126 4.0 10.0 0.00 0.00 0.00 29 1013.9
20260502164320 85 114 3.0 10.0 0.00 0.00 0.00 30 1014.1
20260502164229 85 98 4.0 10.0 0.00 0.00 0.00 29 1014.2
20260502164200 85 93 3.0 12.0 0.00 0.00 0.00 29 1014.2
20260502164043 84 80 2.0 13.0 0.00 0.00 0.00 30 1014.1
20260502163924 84 76 3.0 13.0 0.00 0.00 0.00 30 1014.1
20260502163833 84 102 3.0 13.0 0.00 0.00 0.00 30 1014.1
20260502163754 84 99 3.0 13.0 0.00 0.00 0.00 29 1014.2
20260502163642 84 108 3.0 13.0 0.00 0.00 0.00 29 1014.2
20260502163543 84 72 4.0 13.0 0.00 0.00 0.00 30 1014.2
20260502163424 84 91 5.0 13.0 0.00 0.00 0.00 30 1014.3
20260502163337 84 107 6.0 13.0 0.00 0.00 0.00 29 1014.2
20260502163219 84 119 4.0 13.0 0.00 0.00 0.00 30 1014.2
20260502163121 84 89 3.0 11.0 0.00 0.00 0.00 31 1014.2
20260502163023 84 75 3.0 11.0 0.00 0.00 0.00 30 1014.3
20260502162951 84 99 3.0 11.0 0.00 0.00 0.00 30 1014.2
20260502162831 84 98 2.0 11.0 0.00 0.00 0.00 30 1014.2
20260502162722 84 105 3.0 11.0 0.00 0.00 0.00 30 1014.3
20260502162624 84 79 5.0 11.0 0.00 0.00 0.00 30 1014.2
20260502162528 84 95 5.0 11.0 0.00 0.00 0.00 30 1014.3
20260502162431 84 93 2.0 11.0 0.00 0.00 0.00 30 1014.1
20260502162401 84 83 1.0 11.0 0.00 0.00 0.00 30 1014.2
20260502162241 84 113 3.0 11.0 0.00 0.00 0.00 30 1014.2
20260502162122 84 128 5.0 11.0 0.00 0.00 0.00 30 1014.1
20260502162034 84 98 5.0 11.0 0.00 0.00 0.00 29 1014.2
20260502161936 84 110 4.0 14.0 0.00 0.00 0.00 29 1014.1
20260502161823 84 104 5.0 14.0 0.00 0.00 0.00 30 1014.1
20260502161722 84 58 4.0 14.0 0.00 0.00 0.00 29 1014.2
20260502161651 84 68 2.0 14.0 0.00 0.00 0.00 30 1014.1
20260502161539 84 65 1.0 14.0 0.00 0.00 0.00 30 1014.1
20260502161420 84 108 2.0 14.0 0.00 0.00 0.00 29 1014.2
20260502161322 83 74 3.0 14.0 0.00 0.00 0.00 30 1014.1
20260502161228 83 70 4.0 14.0 0.00 0.00 0.00 30 1014.1
20260502161134 83 84 2.0 12.0 0.00 0.00 0.00 30 1014.1
20260502161015 83 72 1.0 10.0 0.00 0.00 0.00 29 1014.1
20260502160916 83 98 2.0 14.0 0.00 0.00 0.00 30 1014.1
20260502160826 83 86 3.0 14.0 0.00 0.00 0.00 29 1014.1
20260502160728 83 103 2.0 14.0 0.00 0.00 0.00 29 1014.1
20260502160657 83 96 1.0 14.0 0.00 0.00 0.00 30 1014.1
20260502160522 83 91 0.0 14.0 0.00 0.00 0.00 29 1014.0
20260502160425 83 91 0.0 14.0 0.00 0.00 0.00 30 1014.0
20260502160327 83 93 4.0 14.0 0.00 0.00 0.00 29 1014.1
20260502160233 83 93 5.0 14.0 0.00 0.00 0.00 30 1014.1
20260502160144 83 91 3.0 14.0 0.00 0.00 0.00 30 1014.1
20260502152331 79 75 0.0 1.0 0.00 0.00 0.00 25 1013.8
20260502152233 79 72 0.0 1.0 0.00 0.00 0.00 25 1013.8
20260502152203 79 58 0.0 1.0 0.00 0.00 0.00 26 1013.8
20260502152023 79 57 0.0 1.0 0.00 0.00 0.00 26 1013.7
20260502151925 79 57 0.0 1.0 0.00 0.00 0.00 25 1013.8
20260502151830 79 57 0.0 1.0 0.00 0.00 0.00 25 1013.8
20260502151739 79 57 0.0 1.0 0.00 0.00 0.00 26 1013.8
20260502151639 79 57 0.0 0.0 0.00 0.00 0.00 26 1013.7
20260502151527 79 57 0.0 0.0 0.00 0.00 0.00 26 1013.8
20260502151429 79 57 0.0 0.0 0.00 0.00 0.00 26 1013.8
20260502151331 79 57 0.0 0.0 0.00 0.00 0.00 26 1013.8
20260502151301 79 57 0.0 0.0 0.00 0.00 0.00 26 1013.8
20260502151024 78 56 0.0 0.0 0.00 0.00 0.00 26 1013.7
20260502150932 78 55 0.0 0.0 0.00 0.00 0.00 26 1013.8
20260502150834 78 54 0.0 0.0 0.00 0.00 0.00 26 1013.8
20260502150716 78 54 0.0 0.0 0.00 0.00 0.00 26 1013.8
20260502150618 78 53 0.0 0.0 0.00 0.00 0.00 26 1013.7
20260502150527 78 53 0.0 0.0 0.00 0.00 0.00 25 1013.7
20260502150433 78 53 0.0 0.0 0.00 0.00 0.00 25 1013.7
20260502150315 78 53 0.0 0.0 0.00 0.00 0.00 27 1013.7
20260502150216 78 53 0.0 0.0 0.00 0.00 0.00 26 1013.7
20260502150145 78 53 0.0 1.0 0.00 0.00 0.00 27 1013.7
20260502150105 78 53 0.0 1.0 0.00 0.00 0.00 27 1013.7
20260502140128 69 46 0.0 0.0 0.00 0.00 0.00 38 1013.2
20260502130622 65 360 0.0 0.0 0.00 0.00 0.00 39 1012.3
20260502130523 64 360 0.0 0.0 0.00 0.00 0.00 40 1012.3
20260502130424 64 360 0.0 0.0 0.00 0.00 0.00 39 1012.2
20260502130334 64 360 0.0 0.0 0.00 0.00 0.00 39 1012.2
20260502130235 64 62 0.0 0.0 0.00 0.00 0.00 38 1012.2
20260502130120 64 58 0.0 0.0 0.00 0.00 0.00 38 1012.2
20260502123725 64 360 0.0 0.0 0.00 0.00 0.00 39 1011.8
20260502123636 64 360 0.0 0.0 0.00 0.00 0.00 39 1011.7
20260502123521 64 360 0.0 0.0 0.00 0.00 0.00 39 1011.8
20260502123423 64 360 0.0 0.0 0.00 0.00 0.00 39 1011.7
20260502123330 64 360 0.0 0.0 0.00 0.00 0.00 39 1011.7
20260502123233 64 360 0.0 0.0 0.00 0.00 0.00 39 1011.8
20260502123115 64 360 0.0 0.0 0.00 0.00 0.00 39 1011.7
20260502123018 64 360 0.0 0.0 0.00 0.00 0.00 39 1011.7
20260502122931 64 360 0.0 0.0 0.00 0.00 0.00 39 1011.7
20260502122833 64 61 0.0 0.0 0.00 0.00 0.00 38 1011.7
20260502122735 64 360 0.0 0.0 0.00 0.00 0.00 38 1011.7
20260502122616 64 360 0.0 0.0 0.00 0.00 0.00 38 1011.6
20260502122544 64 360 0.0 0.0 0.00 0.00 0.00 38 1011.7
20260502122431 64 360 0.0 0.0 0.00 0.00 0.00 38 1011.7
20260502122333 64 360 0.0 0.0 0.00 0.00 0.00 37 1011.6
20260502122219 65 360 0.0 0.0 0.00 0.00 0.00 38 1011.6
20260502122127 65 360 0.0 0.0 0.00 0.00 0.00 37 1011.6
20260502122049 65 360 0.0 0.0 0.00 0.00 0.00 37 1011.6
20260502121938 64 360 0.0 0.0 0.00 0.00 0.00 37 1011.6
20260502121820 64 360 0.0 0.0 0.00 0.00 0.00 37 1011.6
20260502121722 64 360 0.0 0.0 0.00 0.00 0.00 37 1011.6
20260502121649 64 360 0.0 0.0 0.00 0.00 0.00 37 1011.6
20260502121534 64 360 0.0 0.0 0.00 0.00 0.00 38 1011.5
20260502121417 64 360 0.0 0.0 0.00 0.00 0.00 37 1011.5
20260502121319 64 360 0.0 0.0 0.00 0.00 0.00 37 1011.5
20260502121227 64 360 0.0 0.0 0.00 0.00 0.00 38 1011.5
20260502121157 64 360 0.0 0.0 0.00 0.00 0.00 38 1011.5
20260502121017 65 360 0.0 0.0 0.00 0.00 0.00 38 1011.6
20260502120924 65 360 0.0 0.0 0.00 0.00 0.00 37 1011.5
20260502120825 65 360 0.0 0.0 0.00 0.00 0.00 37 1011.4
20260502120734 65 360 0.0 0.0 0.00 0.00 0.00 37 1011.5
20260502120637 65 360 0.0 0.0 0.00 0.00 0.00 37 1011.5
20260502120518 65 360 0.0 0.0 0.00 0.00 0.00 37 1011.5
20260502120426 65 360 0.0 0.0 0.00 0.00 0.00 38 1011.5
20260502120335 65 360 0.0 0.0 0.00 0.00 0.00 38 1011.4
20260502120241 65 360 0.0 0.0 0.00 0.00 0.00 37 1011.4
20260502120121 65 360 0.0 0.0 0.00 0.00 0.00 37 1011.5
20260502115832 65 360 0.0 0.0 0.00 0.00 0.00 37 1011.4
20260502115734 65 360 0.0 0.0 0.00 0.00 0.00 37 1011.5
20260502115616 65 360 0.0 0.0 0.00 0.00 0.00 37 1011.4
20260502115530 65 360 0.0 0.0 0.00 0.00 0.00 37 1011.4
20260502115432 65 360 0.0 0.0 0.00 0.00 0.00 37 1011.4
20260502115333 65 360 0.0 0.0 0.00 0.00 0.00 37 1011.4
20260502115241 65 360 0.0 0.0 0.00 0.00 0.00 37 1011.4
20260502115122 65 360 0.0 0.0 0.00 0.00 0.00 37 1011.5
20260502115024 65 360 0.0 0.0 0.00 0.00 0.00 36 1011.4
20260502114937 65 360 0.0 0.0 0.00 0.00 0.00 36 1011.5
20260502114819 65 360 0.0 0.0 0.00 0.00 0.00 36 1011.4
20260502114721 65 360 0.0 0.0 0.00 0.00 0.00 37 1011.5
20260502114622 65 360 0.0 0.0 0.00 0.00 0.00 37 1011.4
20260502114532 65 360 0.0 0.0 0.00 0.00 0.00 36 1011.4
20260502114434 65 360 0.0 0.0 0.00 0.00 0.00 36 1011.4
20260502114319 65 360 0.0 0.0 0.00 0.00 0.00 36 1011.4
20260502114229 65 360 0.0 0.0 0.00 0.00 0.00 36 1011.4
20260502114131 65 360 0.0 0.0 0.00 0.00 0.00 36 1011.4
20260502114033 65 360 0.0 0.0 0.00 0.00 0.00 36 1011.3
20260502113921 66 360 0.0 0.0 0.00 0.00 0.00 36 1011.4
20260502113822 66 360 0.0 0.0 0.00 0.00 0.00 35 1011.3
20260502113731 66 360 0.0 0.0 0.00 0.00 0.00 36 1011.3
20260502113616 66 360 0.0 0.0 0.00 0.00 0.00 35 1011.4
20260502113517 66 360 0.0 0.0 0.00 0.00 0.00 36 1011.4
20260502113424 66 360 0.0 0.0 0.00 0.00 0.00 35 1011.3
20260502113347 66 360 0.0 0.0 0.00 0.00 0.00 36 1011.3
20260502113233 66 360 0.0 0.0 0.00 0.00 0.00 36 1011.3
20260502113133 66 360 0.0 0.0 0.00 0.00 0.00 35 1011.4
20260502113019 66 360 0.0 0.0 0.00 0.00 0.00 35 1011.3
20260502112921 66 360 0.0 0.0 0.00 0.00 0.00 36 1011.3
20260502112831 66 360 0.0 0.0 0.00 0.00 0.00 35 1011.3
20260502112733 66 360 0.0 0.0 0.00 0.00 0.00 36 1011.3
20260502112642 66 360 0.0 0.0 0.00 0.00 0.00 35 1011.3
20260502112543 66 360 0.0 0.0 0.00 0.00 0.00 35 1011.3
20260502112423 66 360 0.0 0.0 0.00 0.00 0.00 35 1011.2
20260502112335 66 360 0.0 0.0 0.00 0.00 0.00 35 1011.3
20260502112217 66 360 0.0 0.0 0.00 0.00 0.00 35 1011.2
20260502112119 66 360 0.0 0.0 0.00 0.00 0.00 35 1011.3
20260502112048 66 360 0.0 0.0 0.00 0.00 0.00 36 1011.3
20260502111929 66 360 0.0 0.0 0.00 0.00 0.00 36 1011.2
20260502111831 66 360 0.0 0.0 0.00 0.00 0.00 36 1011.2
20260502111716 66 360 0.0 0.0 0.00 0.00 0.00 36 1011.1
20260502111626 66 360 0.0 0.0 0.00 0.00 0.00 36 1011.1
20260502111528 66 360 0.0 0.0 0.00 0.00 0.00 36 1011.2
20260502111431 66 360 0.0 0.0 0.00 0.00 0.00 36 1011.2
20260502111400 66 360 0.0 0.0 0.00 0.00 0.00 36 1011.2
20260502111118 66 360 0.0 0.0 0.00 0.00 0.00 36 1011.2
20260502111031 66 360 0.0 0.0 0.00 0.00 0.00 36 1011.1
20260502110933 67 360 0.0 0.0 0.00 0.00 0.00 36 1011.1
20260502110903 67 360 0.0 0.0 0.00 0.00 0.00 35 1011.1
20260502110722 67 360 0.0 0.0 0.00 0.00 0.00 35 1011.1
20260502110625 67 360 0.0 0.0 0.00 0.00 0.00 35 1011.2
20260502110528 67 360 0.0 0.0 0.00 0.00 0.00 35 1011.1
20260502110437 67 360 0.0 0.0 0.00 0.00 0.00 35 1011.1
20260502110323 67 360 0.0 0.0 0.00 0.00 0.00 35 1011.1
20260502110225 67 360 0.0 0.0 0.00 0.00 0.00 35 1011.1
20260502110127 67 360 0.0 0.0 0.00 0.00 0.00 35 1011.1
20260502110026 67 360 0.0 0.0 0.00 0.00 0.00 35 1011.1
20260502105918 67 360 0.0 0.0 0.00 0.00 0.00 35 1011.1
20260502105847 67 360 0.0 0.0 0.00 0.00 0.00 35 1011.2
20260502105731 67 360 0.0 0.0 0.00 0.00 0.00 35 1011.2
20260502105641 67 360 0.0 0.0 0.00 0.00 0.00 36 1011.2
20260502105543 67 360 0.0 0.0 0.00 0.00 0.00 36 1011.1
20260502105425 66 360 0.0 0.0 0.00 0.00 0.00 36 1011.1
20260502105334 67 360 0.0 0.0 0.00 0.00 0.00 36 1011.2
20260502105236 67 360 0.0 0.0 0.00 0.00 0.00 36 1011.1
20260502105121 67 360 0.0 0.0 0.00 0.00 0.00 36 1011.1
20260502105023 67 360 0.0 0.0 0.00 0.00 0.00 36 1011.2
20260502104932 67 360 0.0 0.0 0.00 0.00 0.00 36 1011.1
20260502104833 67 360 0.0 0.0 0.00 0.00 0.00 36 1011.1
20260502104734 67 360 0.0 0.0 0.00 0.00 0.00 36 1011.1
20260502104616 67 360 0.0 0.0 0.00 0.00 0.00 36 1011.1
20260502104530 67 360 0.0 0.0 0.00 0.00 0.00 36 1011.3
20260502104432 67 360 0.0 0.0 0.00 0.00 0.00 36 1011.3
20260502104342 67 360 0.0 0.0 0.00 0.00 0.00 36 1011.3
20260502104224 67 360 0.0 0.0 0.00 0.00 0.00 36 1011.3
20260502104126 67 360 0.0 0.0 0.00 0.00 0.00 36 1011.2
20260502104028 67 360 0.0 0.0 0.00 0.00 0.00 36 1011.2
20260502103942 67 360 0.0 0.0 0.00 0.00 0.00 36 1011.2
20260502103823 67 360 0.0 0.0 0.00 0.00 0.00 36 1011.3
20260502103745 67 360 0.0 0.0 0.00 0.00 0.00 36 1011.3
20260502103653 66 360 0.0 0.0 0.00 0.00 0.00 36 1011.3
20260502103602 66 360 0.0 0.0 0.00 0.00 0.00 36 1011.3
20260502103423 67 360 0.0 0.0 0.00 0.00 0.00 35 1011.4
20260502103325 67 360 0.0 0.0 0.00 0.00 0.00 35 1011.4
20260502103230 67 360 0.0 0.0 0.00 0.00 0.00 35 1011.3
20260502103142 67 360 0.0 0.0 0.00 0.00 0.00 35 1011.3
20260502103022 67 360 0.0 0.0 0.00 0.00 0.00 35 1011.3
20260502102924 67 360 0.0 0.0 0.00 0.00 0.00 35 1011.3
20260502102853 67 360 0.0 0.0 0.00 0.00 0.00 35 1011.3
20260502102802 67 360 0.0 0.0 0.00 0.00 0.00 35 1011.3
20260502102621 67 360 0.0 0.0 0.00 0.00 0.00 35 1011.3
20260502102552 67 360 0.0 0.0 0.00 0.00 0.00 35 1011.3
20260502102455 67 360 0.0 0.0 0.00 0.00 0.00 35 1011.2
20260502102321 67 360 0.0 0.0 0.00 0.00 0.00 35 1011.2
20260502102221 67 360 0.0 0.0 0.00 0.00 0.00 35 1011.3
20260502102130 67 360 0.0 0.0 0.00 0.00 0.00 35 1011.3
20260502102031 67 360 0.0 0.0 0.00 0.00 0.00 35 1011.2
20260502101940 67 360 0.0 0.0 0.00 0.00 0.00 35 1011.2
20260502101822 67 360 0.0 0.0 0.00 0.00 0.00 35 1011.3
20260502101728 67 360 0.0 0.0 0.00 0.00 0.00 35 1011.2
20260502101656 67 360 0.0 0.0 0.00 0.00 0.00 35 1011.2
20260502101516 67 360 0.0 0.0 0.00 0.00 0.00 35 1011.2
20260502101417 67 60 0.0 0.0 0.00 0.00 0.00 35 1011.1
20260502101329 67 59 0.0 0.0 0.00 0.00 0.00 35 1011.2
20260502101229 67 58 0.0 0.0 0.00 0.00 0.00 35 1011.2
20260502101115 67 58 0.0 0.0 0.00 0.00 0.00 35 1011.1
20260502101044 67 58 0.0 0.0 0.00 0.00 0.00 35 1011.1
20260502100925 67 58 0.0 0.0 0.00 0.00 0.00 34 1011.1
20260502100833 67 58 0.0 0.0 0.00 0.00 0.00 34 1011.1
20260502100734 67 58 0.0 0.0 0.00 0.00 0.00 34 1011.2
20260502100637 67 57 0.0 0.0 0.00 0.00 0.00 34 1011.1
20260502100517 67 57 0.0 0.0 0.00 0.00 0.00 34 1011.1
20260502100424 67 57 0.0 0.0 0.00 0.00 0.00 33 1011.0
20260502100329 67 57 0.0 0.0 0.00 0.00 0.00 33 1011.1
20260502100240 67 57 0.0 0.0 0.00 0.00 0.00 33 1011.1
20260502100141 68 57 0.0 0.0 0.00 0.00 0.00 33 1011.1
20260502091424 70 56 0.0 0.0 0.00 0.00 0.00 29 1010.7
20260502091326 70 56 0.0 0.0 0.00 0.00 0.00 29 1010.7
20260502091235 70 56 0.0 0.0 0.00 0.00 0.00 28 1010.7
20260502091121 70 56 0.0 0.0 0.00 0.00 0.00 28 1010.6
20260502091022 70 56 0.0 0.0 0.00 0.00 0.00 28 1010.7
20260502090952 70 56 0.0 0.0 0.00 0.00 0.00 28 1010.7
20260502090831 70 56 0.0 0.0 0.00 0.00 0.00 28 1010.6
20260502090740 70 56 0.0 0.0 0.00 0.00 0.00 28 1010.6
20260502090621 70 56 0.0 0.0 0.00 0.00 0.00 28 1010.6
20260502090543 70 56 0.0 0.0 0.00 0.00 0.00 28 1010.7
20260502090455 70 56 0.0 0.0 0.00 0.00 0.00 28 1010.6
20260502090343 70 56 0.0 0.0 0.00 0.00 0.00 28 1010.6
20260502090224 70 56 0.0 0.0 0.00 0.00 0.00 28 1010.6
20260502090152 70 56 0.0 0.0 0.00 0.00 0.00 28 1010.6
20260502071533 75 256 0.0 0.0 0.00 0.00 0.00 24 1009.7
20260502071421 74 256 0.0 0.0 0.00 0.00 0.00 24 1009.8
20260502071323 74 256 0.0 0.0 0.00 0.00 0.00 23 1009.7
20260502071226 74 256 0.0 0.0 0.00 0.00 0.00 24 1009.6
20260502071133 74 256 0.0 0.0 0.00 0.00 0.00 24 1009.7
20260502071018 74 256 0.0 0.0 0.00 0.00 0.00 24 1009.6
20260502070920 74 256 0.0 0.0 0.00 0.00 0.00 24 1009.6
20260502070828 74 256 0.0 0.0 0.00 0.00 0.00 24 1009.6
20260502070731 74 256 0.0 0.0 0.00 0.00 0.00 24 1009.6
20260502070634 74 256 0.0 0.0 0.00 0.00 0.00 24 1009.6
20260502070517 74 256 0.0 0.0 0.00 0.00 0.00 25 1009.6
20260502070425 74 256 0.0 0.0 0.00 0.00 0.00 24 1009.6
20260502070331 74 256 0.0 0.0 0.00 0.00 0.00 25 1009.6
20260502070242 74 256 0.0 0.0 0.00 0.00 0.00 25 1009.6
20260502070116 74 256 0.0 0.0 0.00 0.00 0.00 24 1009.6
20260502070035 74 256 0.0 0.0 0.00 0.00 0.00 24 1009.6
20260502065952 74 256 0.0 0.0 0.00 0.00 0.00 24 1009.6
20260502065834 74 256 0.0 0.0 0.00 0.00 0.00 24 1009.6
20260502065719 74 256 0.0 0.0 0.00 0.00 0.00 24 1009.6
20260502065627 74 256 0.0 0.0 0.00 0.00 0.00 24 1009.6
20260502065536 74 256 0.0 0.0 0.00 0.00 0.00 24 1009.6
20260502065418 74 256 0.0 0.0 0.00 0.00 0.00 24 1009.6
20260502065320 74 256 0.0 0.0 0.00 0.00 0.00 25 1009.8
20260502065220 74 256 0.0 0.0 0.00 0.00 0.00 24 1009.6
20260502065130 74 256 0.0 0.0 0.00 0.00 0.00 24 1009.7
20260502065034 74 256 0.0 0.0 0.00 0.00 0.00 24 1009.7
20260502064915 75 256 0.0 0.0 0.00 0.00 0.00 25 1009.7
20260502064844 75 256 0.0 0.0 0.00 0.00 0.00 24 1009.8
20260502064726 75 256 0.0 0.0 0.00 0.00 0.00 24 1009.9
20260502064635 75 256 0.0 0.0 0.00 0.00 0.00 24 1009.9
20260502064516 75 256 0.0 0.0 0.00 0.00 0.00 24 1010.0
20260502064423 75 256 0.0 0.0 0.00 0.00 0.00 24 1009.9
20260502064324 75 256 0.0 0.0 0.00 0.00 0.00 24 1009.8
20260502064233 75 256 0.0 0.0 0.00 0.00 0.00 24 1009.8
20260502064135 75 256 0.0 0.0 0.00 0.00 0.00 24 1009.9
20260502064044 75 256 0.0 0.0 0.00 0.00 0.00 24 1009.9
20260502063923 75 256 0.0 0.0 0.00 0.00 0.00 24 1010.0
20260502063832 75 256 0.0 0.0 0.00 0.00 0.00 24 1009.9
20260502063719 75 256 0.0 0.0 0.00 0.00 0.00 24 1009.9
20260502063620 75 256 0.0 0.0 0.00 0.00 0.00 24 1009.8
20260502063549 75 256 0.0 0.0 0.00 0.00 0.00 24 1009.8
20260502063429 75 256 0.0 0.0 0.00 0.00 0.00 24 1009.8
20260502063338 75 256 0.0 0.0 0.00 0.00 0.00 24 1009.8
20260502063219 76 256 0.0 0.0 0.00 0.00 0.00 24 1009.8
20260502063121 76 256 0.0 0.0 0.00 0.00 0.00 24 1009.9
20260502063033 76 256 0.0 0.0 0.00 0.00 0.00 24 1009.8
20260502062954 76 256 0.0 0.0 0.00 0.00 0.00 23 1009.8
20260502062816 76 256 0.0 0.0 0.00 0.00 0.00 24 1009.8
20260502062725 76 256 0.0 0.0 0.00 0.00 0.00 24 1009.8
20260502062627 76 256 0.0 0.0 0.00 0.00 0.00 24 1009.8
20260502062527 76 256 0.0 0.0 0.00 0.00 0.00 24 1009.8
20260502062421 76 256 0.0 0.0 0.00 0.00 0.00 24 1009.8
20260502062323 75 256 0.0 0.0 0.00 0.00 0.00 24 1009.8
20260502062226 75 256 0.0 0.0 0.00 0.00 0.00 24 1009.7
20260502062135 75 256 0.0 0.0 0.00 0.00 0.00 25 1009.8
20260502062057 75 256 0.0 0.0 0.00 0.00 0.00 25 1009.8
20260502061944 75 256 0.0 0.0 0.00 0.00 0.00 25 1009.8
20260502061825 75 256 0.0 0.0 0.00 0.00 0.00 25 1009.8
20260502061731 75 256 0.0 0.0 0.00 0.00 0.00 26 1009.7
20260502061521 74 256 0.0 0.0 0.00 0.00 0.00 26 1009.7
20260502061423 74 256 0.0 0.0 0.00 0.00 0.00 26 1009.8
20260502061232 74 256 0.0 0.0 0.00 0.00 0.00 26 1009.8
20260502061118 74 256 0.0 0.0 0.00 0.00 0.00 26 1009.7
20260502061020 74 256 0.0 0.0 0.00 0.00 0.00 27 1009.8
20260502060922 74 256 0.0 0.0 0.00 0.00 0.00 27 1009.8
20260502060852 75 256 0.0 0.0 0.00 0.00 0.00 27 1009.8
20260502060739 75 256 0.0 0.0 0.00 0.00 0.00 26 1009.8
20260502060620 75 256 0.0 0.0 0.00 0.00 0.00 27 1009.8
20260502060522 74 256 0.0 0.0 0.00 0.00 0.00 26 1009.7
20260502060436 74 256 0.0 0.0 0.00 0.00 0.00 26 1009.6
20260502060319 74 256 0.0 0.0 0.00 0.00 0.00 27 1009.6
20260502060221 74 256 0.0 0.0 0.00 0.00 0.00 27 1009.6
20260502060123 74 256 0.0 0.0 0.00 0.00 0.00 27 1009.7
20260502060044 74 256 0.0 0.0 0.00 0.00 0.00 28 1009.7
20260502055917 74 256 0.0 0.0 0.00 0.00 0.00 27 1009.6
20260502055819 74 256 0.0 0.0 0.00 0.00 0.00 27 1009.6
20260502055728 74 256 0.0 0.0 0.00 0.00 0.00 27 1009.6
20260502055631 74 256 0.0 0.0 0.00 0.00 0.00 27 1009.6
20260502055600 74 256 0.0 0.0 0.00 0.00 0.00 27 1009.6
20260502055421 74 256 0.0 0.0 0.00 0.00 0.00 27 1009.6
20260502055323 74 256 0.0 0.0 0.00 0.00 0.00 28 1009.6
20260502055228 74 256 0.0 0.0 0.00 0.00 0.00 27 1009.5
20260502055137 74 256 0.0 0.0 0.00 0.00 0.00 27 1009.5
20260502055018 74 256 0.0 0.0 0.00 0.00 0.00 27 1009.5
20260502054921 74 256 0.0 0.0 0.00 0.00 0.00 28 1009.5
20260502054823 74 256 0.0 0.0 0.00 0.00 0.00 28 1009.5
20260502054733 74 256 0.0 0.0 0.00 0.00 0.00 28 1009.5
20260502054639 74 256 0.0 0.0 0.00 0.00 0.00 28 1009.5
20260502054519 74 256 0.0 0.0 0.00 0.00 0.00 28 1009.6
20260502054429 74 256 0.0 0.0 0.00 0.00 0.00 28 1009.5
20260502054331 74 256 0.0 0.0 0.00 0.00 0.00 28 1009.5
20260502054234 74 256 0.0 0.0 0.00 0.00 0.00 27 1009.5
20260502054143 74 256 0.0 0.0 0.00 0.00 0.00 28 1009.5
20260502054052 74 256 0.0 0.0 0.00 0.00 0.00 27 1009.5
20260502053917 74 256 0.0 0.0 0.00 0.00 0.00 27 1009.5
20260502053819 74 256 0.0 0.0 0.00 0.00 0.00 27 1009.5
20260502053730 74 256 0.0 0.0 0.00 0.00 0.00 28 1009.4
20260502053632 74 256 0.0 0.0 0.00 0.00 0.00 27 1009.4
20260502053535 74 256 0.0 0.0 0.00 0.00 0.00 27 1009.5
20260502053417 74 256 0.0 0.0 0.00 0.00 0.00 28 1009.4
20260502053329 74 256 0.0 0.0 0.00 0.00 0.00 27 1009.4
20260502053232 74 256 0.0 0.0 0.00 0.00 0.00 28 1009.4
20260502053142 74 256 0.0 0.0 0.00 0.00 0.00 28 1009.4
20260502053024 74 256 0.0 0.0 0.00 0.00 0.00 28 1009.4
20260502052927 74 256 0.0 0.0 0.00 0.00 0.00 27 1009.4
20260502052837 74 256 0.0 0.0 0.00 0.00 0.00 27 1009.5
20260502052723 74 256 0.0 0.0 0.00 0.00 0.00 27 1009.4
20260502052626 74 256 0.0 0.0 0.00 0.00 0.00 27 1009.5
20260502052516 75 256 0.0 0.0 0.00 0.00 0.00 27 1009.5
20260502052437 75 256 0.0 0.0 0.00 0.00 0.00 27 1009.5
20260502052326 75 256 0.0 0.0 0.00 0.00 0.00 27 1009.4
20260502052228 75 256 0.0 0.0 0.00 0.00 0.00 27 1009.6
20260502052131 75 256 0.0 0.0 0.00 0.00 0.00 26 1009.5
20260502052018 75 256 0.0 0.0 0.00 0.00 0.00 27 1009.5
20260502051928 75 256 0.0 0.0 0.00 0.00 0.00 26 1009.5
20260502051830 75 256 0.0 0.0 0.00 0.00 0.00 26 1009.5
20260502051732 75 256 0.0 0.0 0.00 0.00 0.00 26 1009.5
20260502051622 75 256 0.0 0.0 0.00 0.00 0.00 26 1009.4
20260502051523 75 256 0.0 0.0 0.00 0.00 0.00 26 1009.5
20260502051434 75 256 0.0 0.0 0.00 0.00 0.00 26 1009.5
20260502051317 76 256 0.0 0.0 0.00 0.00 0.00 26 1009.4
20260502051226 76 256 0.0 0.0 0.00 0.00 0.00 27 1009.4
20260502051148 76 255 0.0 0.0 0.00 0.00 0.00 26 1009.4
20260502051036 76 255 0.0 0.0 0.00 0.00 0.00 26 1009.4
20260502050919 76 255 0.0 0.0 0.00 0.00 0.00 27 1009.4
20260502050820 76 255 0.0 0.0 0.00 0.00 0.00 26 1009.2
20260502050734 76 255 0.0 0.0 0.00 0.00 0.00 26 1009.3
20260502050702 76 255 0.0 0.0 0.00 0.00 0.00 26 1009.3
20260502050523 76 255 0.0 0.0 0.00 0.00 0.00 25 1009.2
20260502050425 76 256 0.0 0.0 0.00 0.00 0.00 25 1009.2
20260502050335 77 256 0.0 0.0 0.00 0.00 0.00 25 1009.2
20260502050217 77 256 0.0 0.0 0.00 0.00 0.00 25 1009.2
20260502050119 77 256 0.0 0.0 0.00 0.00 0.00 25 1009.1
20260502050042 77 256 0.0 0.0 0.00 0.00 0.00 25 1009.1
20260502045955 76 256 0.0 0.0 0.00 0.00 0.00 25 1009.1
20260502045835 76 256 0.0 0.0 0.00 0.00 0.00 25 1009.0
20260502045717 76 256 0.0 0.0 0.00 0.00 0.00 25 1009.0
20260502045621 76 256 0.0 0.0 0.00 0.00 0.00 25 1009.0
20260502045529 76 256 0.0 0.0 0.00 0.00 0.00 25 1009.0
20260502045431 76 256 0.0 0.0 0.00 0.00 0.00 25 1009.0
20260502045318 77 256 0.0 0.0 0.00 0.00 0.00 25 1009.0
20260502045227 77 256 0.0 0.0 0.00 0.00 0.00 25 1008.9
20260502045130 77 256 0.0 0.0 0.00 0.00 0.00 26 1008.9
20260502045031 77 256 0.0 0.0 0.00 0.00 0.00 25 1009.0
20260502044939 77 256 0.0 0.0 0.00 0.00 0.00 25 1009.0
20260502044826 77 256 0.0 0.0 0.00 0.00 0.00 25 1009.0
20260502044748 77 256 0.0 0.0 0.00 0.00 0.00 25 1009.0
20260502044636 77 256 0.0 0.0 0.00 0.00 0.00 25 1009.0
20260502044519 77 256 0.0 0.0 0.00 0.00 0.00 24 1008.9
20260502044449 77 256 0.0 0.0 0.00 0.00 0.00 25 1008.9
20260502044331 77 256 0.0 0.0 0.00 0.00 0.00 25 1009.0
20260502044234 77 256 0.0 0.0 0.00 0.00 0.00 25 1009.0
20260502044121 78 256 0.0 0.0 0.00 0.00 0.00 24 1008.9
20260502044030 78 256 0.0 0.0 0.00 0.00 0.00 24 1008.9
20260502043933 78 256 0.0 0.0 0.00 0.00 0.00 24 1008.9
20260502043835 78 256 0.0 0.0 0.00 0.00 0.00 24 1008.9
20260502043718 78 256 0.0 0.0 0.00 0.00 0.00 24 1009.0
20260502043648 78 256 0.0 0.0 0.00 0.00 0.00 24 1008.8
20260502043518 78 256 0.0 0.0 0.00 0.00 0.00 23 1008.9
20260502043421 78 256 0.0 0.0 0.00 0.00 0.00 23 1008.9
20260502043324 78 256 0.0 0.0 0.00 0.00 0.00 23 1008.9
20260502043233 78 256 0.0 0.0 0.00 0.00 0.00 23 1008.9
20260502043116 78 256 0.0 0.0 0.00 0.00 0.00 24 1008.9
20260502043018 78 256 0.0 0.0 0.00 0.00 0.00 24 1008.9
20260502042924 78 256 0.0 0.0 0.00 0.00 0.00 24 1008.9
20260502042853 78 256 0.0 0.0 0.00 0.00 0.00 24 1008.9
20260502042734 78 256 0.0 0.0 0.00 0.00 0.00 25 1008.9
20260502042616 79 256 0.0 0.0 0.00 0.00 0.00 24 1008.9
20260502042524 79 256 0.0 0.0 0.00 0.00 0.00 24 1008.8
20260502042425 79 256 0.0 0.0 0.00 0.00 0.00 24 1008.9
20260502042334 79 256 0.0 0.0 0.00 0.00 0.00 24 1008.8
20260502042221 79 256 0.0 0.0 0.00 0.00 0.00 24 1008.8
20260502042124 79 256 0.0 0.0 0.00 0.00 0.00 24 1008.9
20260502042034 79 256 0.0 0.0 0.00 0.00 0.00 24 1008.9
20260502041935 79 256 0.0 0.0 0.00 0.00 0.00 24 1008.8
20260502041838 79 256 0.0 0.0 0.00 0.00 0.00 24 1008.9
20260502041727 79 256 0.0 0.0 0.00 0.00 0.00 24 1008.9
20260502041629 79 256 0.0 0.0 0.00 0.00 0.00 24 1008.9
20260502041541 79 256 0.0 0.0 0.00 0.00 0.00 24 1009.0
20260502041443 79 256 0.0 0.0 0.00 0.00 0.00 24 1009.0
20260502041332 79 256 0.0 0.0 0.00 0.00 0.00 24 1008.9
20260502041234 79 256 0.0 0.0 0.00 0.00 0.00 24 1009.0
20260502041141 79 256 0.0 0.0 0.00 0.00 0.00 24 1008.9
20260502041023 79 256 0.0 0.0 0.00 0.00 0.00 24 1009.0
20260502040930 79 256 0.0 0.0 0.00 0.00 0.00 24 1009.0
20260502040830 79 256 0.0 0.0 0.00 0.00 0.00 24 1009.0
20260502040739 79 256 0.0 0.0 0.00 0.00 0.00 23 1009.0
20260502040621 79 256 0.0 0.0 0.00 0.00 0.00 22 1009.0
20260502040523 79 256 0.0 0.0 0.00 0.00 0.00 22 1009.0
20260502040425 79 256 0.0 0.0 0.00 0.00 0.00 22 1008.9
20260502040316 79 256 0.0 0.0 0.00 0.00 0.00 22 1008.8
20260502040246 79 256 0.0 0.0 0.00 0.00 0.00 22 1008.8
20260502040146 79 256 0.0 0.0 0.00 0.00 0.00 22 1008.8
20260502040048 79 256 0.0 0.0 0.00 0.00 0.00 22 1008.8
20260502035919 80 256 0.0 0.0 0.00 0.00 0.00 22 1008.8
20260502035822 80 256 0.0 0.0 0.00 0.00 0.00 21 1008.8
20260502035732 80 256 0.0 0.0 0.00 0.00 0.00 21 1008.8
20260502035618 80 256 0.0 0.0 0.00 0.00 0.00 20 1008.8
20260502035520 80 256 0.0 0.0 0.00 0.00 0.00 20 1008.8
20260502035429 80 256 0.0 0.0 0.00 0.00 0.00 20 1008.8
20260502035331 80 256 0.0 0.0 0.00 0.00 0.00 20 1008.8
20260502035234 80 256 0.0 0.0 0.00 0.00 0.00 20 1008.8
20260502035143 81 256 0.0 0.0 0.00 0.00 0.00 19 1008.8
20260502035051 81 256 0.0 0.0 0.00 0.00 0.00 20 1008.9
20260502034937 81 256 0.0 0.0 0.00 0.00 0.00 19 1008.8
20260502034818 81 256 0.0 0.0 0.00 0.00 0.00 19 1008.8
20260502034727 81 256 0.0 0.0 0.00 0.00 0.00 19 1008.9
20260502034630 81 256 0.0 0.0 0.00 0.00 0.00 19 1008.9
20260502034533 81 256 0.0 0.0 0.00 0.00 0.00 19 1008.8
20260502034442 81 256 0.0 0.0 0.00 0.00 0.00 19 1008.8
20260502034344 82 256 0.0 0.0 0.00 0.00 0.00 19 1008.8
20260502034237 82 256 0.0 0.0 0.00 0.00 0.00 19 1008.7
20260502034140 82 256 0.0 0.0 0.00 0.00 0.00 19 1008.8
20260502034022 82 256 0.0 0.0 0.00 0.00 0.00 19 1008.7
20260502033951 82 256 0.0 0.0 0.00 0.00 0.00 19 1008.7
20260502033832 82 256 0.0 0.0 0.00 0.00 0.00 19 1008.7
20260502033742 82 256 0.0 0.0 0.00 0.00 0.00 19 1008.7
20260502033629 82 256 0.0 0.0 0.00 0.00 0.00 19 1008.7
20260502033531 82 256 0.0 0.0 0.00 0.00 0.00 19 1008.6
20260502033442 82 256 0.0 0.0 0.00 0.00 0.00 19 1008.5
20260502033342 82 256 0.0 0.0 0.00 0.00 0.00 19 1008.5
20260502033224 82 256 0.0 0.0 0.00 0.00 0.00 19 1008.5
20260502033126 82 256 0.0 0.0 0.00 0.00 0.00 19 1008.4
20260502033039 82 256 0.0 0.0 0.00 0.00 0.00 19 1008.5
20260502032920 82 256 0.0 0.0 0.00 0.00 0.00 19 1008.4
20260502032821 82 256 0.0 0.0 0.00 0.00 0.00 19 1008.4
20260502032752 82 256 0.0 0.0 0.00 0.00 0.00 19 1008.6
20260502032633 82 256 0.0 0.0 0.00 0.00 0.00 19 1008.6
20260502032542 82 256 0.0 0.0 0.00 0.00 0.00 19 1008.5
20260502032424 82 256 0.0 0.0 0.00 0.00 0.00 19 1008.5
20260502032338 83 256 0.0 0.0 0.00 0.00 0.00 19 1008.4
20260502032220 83 256 0.0 0.0 0.00 0.00 0.00 19 1008.4
20260502032123 83 256 0.0 0.0 0.00 0.00 0.00 18 1008.4
20260502032053 83 256 0.0 0.0 0.00 0.00 0.00 18 1008.4
20260502031955 83 256 0.0 0.0 0.00 0.00 0.00 18 1008.3
20260502031816 83 256 0.0 0.0 0.00 0.00 0.00 18 1008.4
20260502031726 83 256 0.0 0.0 0.00 0.00 0.00 18 1008.4
20260502031633 83 256 0.0 0.0 0.00 0.00 0.00 18 1008.4
20260502031534 83 256 0.0 0.0 0.00 0.00 0.00 18 1008.4
20260502031425 83 256 0.0 0.0 0.00 0.00 0.00 18 1008.4
20260502031327 83 256 0.0 0.0 0.00 0.00 0.00 18 1008.3
20260502031230 83 256 0.0 0.0 0.00 0.00 0.00 18 1008.2
20260502031116 83 256 0.0 0.0 0.00 0.00 0.00 18 1008.3
20260502031026 83 256 0.0 0.0 0.00 0.00 0.00 18 1008.2
20260502030949 83 256 0.0 0.0 0.00 0.00 0.00 18 1008.3
20260502030838 83 256 0.0 0.0 0.00 0.00 0.00 18 1008.3
20260502030741 83 256 0.0 0.0 0.00 0.00 0.00 18 1008.4
20260502030648 83 256 0.0 0.0 0.00 0.00 0.00 18 1008.4
20260502030521 84 256 0.0 0.0 0.00 0.00 0.00 18 1008.4
20260502030427 83 256 0.0 0.0 0.00 0.00 0.00 18 1008.3
20260502030337 83 256 0.0 0.0 0.00 0.00 0.00 18 1008.2
20260502030235 84 256 0.0 0.0 0.00 0.00 0.00 18 1008.1
20260502030118 84 256 0.0 0.0 0.00 0.00 0.00 18 1008.1
20260502030032 84 256 0.0 0.0 0.00 0.00 0.00 18 1008.1
20260502025927 84 256 0.0 0.0 0.00 0.00 0.00 18 1008.2
20260502025833 84 256 0.0 0.0 0.00 0.00 0.00 18 1008.2
20260502025715 84 256 0.0 0.0 0.00 0.00 0.00 18 1008.1
20260502025646 84 256 0.0 0.0 0.00 0.00 0.00 18 1008.2
20260502025554 84 256 0.0 0.0 0.00 0.00 0.00 18 1008.2
20260502025416 84 256 0.0 0.0 0.00 0.00 0.00 18 1008.2
20260502025319 84 256 0.0 0.0 0.00 0.00 0.00 18 1008.2
20260502025227 84 256 0.0 0.0 0.00 0.00 0.00 18 1008.2
20260502025133 84 256 0.0 0.0 0.00 0.00 0.00 18 1008.1
20260502025016 84 256 0.0 0.0 0.00 0.00 0.00 17 1008.1
20260502024926 84 256 0.0 0.0 0.00 0.00 0.00 18 1008.1
20260502024827 84 256 0.0 0.0 0.00 0.00 0.00 18 1008.2
20260502024737 84 256 0.0 0.0 0.00 0.00 0.00 17 1008.1
20260502024619 84 256 0.0 0.0 0.00 0.00 0.00 18 1008.1
20260502024521 84 256 0.0 0.0 0.00 0.00 0.00 18 1008.1
20260502024435 84 256 0.0 0.0 0.00 0.00 0.00 18 1008.1
20260502024316 85 256 0.0 0.0 0.00 0.00 0.00 18 1008.1
20260502024246 85 256 0.0 0.0 0.00 0.00 0.00 18 1008.1
20260502024127 85 256 0.0 0.0 0.00 0.00 0.00 18 1008.0
20260502024029 85 256 0.0 0.0 0.00 0.00 0.00 18 1008.0
20260502023939 85 256 0.0 0.0 0.00 0.00 0.00 18 1008.0
20260502023826 85 256 0.0 0.0 0.00 0.00 0.00 17 1008.0
20260502023729 85 256 0.0 0.0 0.00 0.00 0.00 17 1008.0
20260502023632 85 256 0.0 0.0 0.00 0.00 0.00 17 1008.0
20260502023540 85 256 0.0 0.0 0.00 0.00 0.00 18 1007.9
20260502023442 85 256 0.0 0.0 0.00 0.00 0.00 17 1007.9
20260502023323 86 256 0.0 0.0 0.00 0.00 0.00 17 1007.9
20260502023231 86 256 0.0 0.0 0.00 0.00 0.00 17 1007.9
20260502023144 86 256 0.0 0.0 0.00 0.00 0.00 17 1007.9
20260502023026 86 256 0.0 0.0 0.00 0.00 0.00 17 1007.9
20260502022927 86 256 0.0 0.0 0.00 0.00 0.00 17 1007.9
20260502022838 86 256 0.0 0.0 0.00 0.00 0.00 18 1007.9
20260502022718 86 256 0.0 0.0 0.00 0.00 0.00 17 1007.9
20260502022621 86 256 0.0 0.0 0.00 0.00 0.00 17 1007.9
20260502022535 86 256 0.0 0.0 0.00 0.00 0.00 17 1007.9
20260502022418 86 256 0.0 0.0 0.00 0.00 0.00 18 1007.9
20260502022321 86 256 0.0 0.0 0.00 0.00 0.00 18 1007.8
20260502022230 86 256 0.0 0.0 0.00 0.00 0.00 17 1007.9
20260502022134 86 256 0.0 0.0 0.00 0.00 0.00 17 1007.8
20260502022016 86 256 0.0 0.0 0.00 0.00 0.00 17 1007.7
20260502021922 86 256 0.0 0.0 0.00 0.00 0.00 18 1007.8
20260502021832 86 256 0.0 0.0 0.00 0.00 0.00 18 1007.8
20260502021735 86 256 0.0 0.0 0.00 0.00 0.00 17 1007.8
20260502021617 86 256 0.0 0.0 0.00 0.00 0.00 17 1007.8
20260502021520 86 256 0.0 0.0 0.00 0.00 0.00 18 1007.8
20260502021430 86 256 0.0 0.0 0.00 0.00 0.00 17 1007.8
20260502021316 86 256 0.0 0.0 0.00 0.00 0.00 18 1007.8
20260502021219 87 256 0.0 0.0 0.00 0.00 0.00 18 1007.9
20260502021128 87 256 0.0 0.0 0.00 0.00 0.00 17 1007.9
20260502021032 87 256 0.0 0.0 0.00 0.00 0.00 18 1007.9
20260502020934 87 256 0.0 0.0 0.00 0.00 0.00 18 1007.9
20260502020820 87 256 0.0 0.0 0.00 0.00 0.00 18 1007.9
20260502020730 87 256 0.0 0.0 0.00 0.00 0.00 18 1007.9
20260502020632 87 256 0.0 0.0 0.00 0.00 0.00 18 1007.8
20260502020601 87 256 0.0 0.0 0.00 0.00 0.00 17 1007.8
20260502020422 87 256 0.0 0.0 0.00 0.00 0.00 18 1007.7
20260502020325 87 256 0.0 0.0 0.00 0.00 0.00 18 1007.7
20260502020236 87 256 0.0 0.0 0.00 0.00 0.00 18 1007.7
20260502020121 87 256 0.0 0.0 0.00 0.00 0.00 18 1007.7
20260502020034 87 256 0.0 0.0 0.00 0.00 0.00 17 1007.6
20260502015953 87 256 0.0 0.0 0.00 0.00 0.00 17 1007.6
20260502015835 87 256 0.0 0.0 0.00 0.00 0.00 18 1007.6
20260502015717 87 256 0.0 0.0 0.00 0.00 0.00 17 1007.7
20260502015626 87 256 0.0 0.0 0.00 0.00 0.00 18 1007.6
20260502015532 87 256 0.0 0.0 0.00 0.00 0.00 17 1007.6
20260502015440 87 256 0.0 0.0 0.00 0.00 0.00 18 1007.8
20260502015342 88 256 0.0 0.0 0.00 0.00 0.00 17 1007.7
20260502015224 88 256 0.0 0.0 0.00 0.00 0.00 17 1007.7
20260502015133 88 256 0.0 0.0 0.00 0.00 0.00 17 1007.7
20260502015035 88 256 0.0 0.0 0.00 0.00 0.00 17 1007.8
20260502014920 88 256 0.0 0.0 0.00 0.00 0.00 17 1007.8
20260502014829 88 256 0.0 0.0 0.00 0.00 0.00 17 1007.7
20260502014730 88 256 0.0 0.0 0.00 0.00 0.00 17 1007.7
20260502014639 88 256 0.0 0.0 0.00 0.00 0.00 17 1007.7
20260502014521 88 256 0.0 0.0 0.00 0.00 0.00 17 1007.6
20260502014450 88 256 0.0 0.0 0.00 0.00 0.00 17 1007.6
20260502014331 88 256 0.0 0.0 0.00 0.00 0.00 17 1007.7
20260502014217 88 256 0.0 0.0 0.00 0.00 0.00 17 1007.7
20260502014119 88 256 0.0 0.0 0.00 0.00 0.00 17 1007.6
20260502014029 88 256 0.0 0.0 0.00 0.00 0.00 18 1007.6
20260502013932 88 256 0.0 0.0 0.00 0.00 0.00 17 1007.6
20260502013841 88 256 0.0 0.0 0.00 0.00 0.00 18 1007.6
20260502013744 88 256 0.0 0.0 0.00 0.00 0.00 17 1007.7
20260502013625 88 256 0.0 0.0 0.00 0.00 0.00 17 1007.7
20260502013539 88 256 0.0 0.0 0.00 0.00 0.00 18 1007.7
20260502013422 89 256 0.0 0.0 0.00 0.00 0.00 17 1007.8
20260502013324 89 256 0.0 0.0 0.00 0.00 0.00 17 1007.7
20260502013233 89 256 0.0 0.0 0.00 0.00 0.00 17 1007.7
20260502013134 89 256 0.0 0.0 0.00 0.00 0.00 17 1007.6
20260502013016 89 256 0.0 0.0 0.00 0.00 0.00 17 1007.6
20260502012929 89 256 0.0 0.0 0.00 0.00 0.00 17 1007.7
20260502012832 89 256 0.0 0.0 0.00 0.00 0.00 17 1007.6
20260502012742 89 256 0.0 0.0 0.00 0.00 0.00 17 1007.6
20260502012643 89 256 0.0 0.0 0.00 0.00 0.00 17 1007.6
20260502012525 89 256 0.0 0.0 0.00 0.00 0.00 17 1007.6
20260502012434 89 256 0.0 0.0 0.00 0.00 0.00 17 1007.6
20260502012320 89 256 0.0 0.0 0.00 0.00 0.00 17 1007.6
20260502012222 89 256 0.0 0.0 0.00 0.00 0.00 17 1007.6
20260502012132 89 256 0.0 0.0 0.00 0.00 0.00 17 1007.6
20260502012034 89 256 0.0 0.0 0.00 0.00 0.00 17 1007.6
20260502011935 89 256 0.0 1.0 0.00 0.00 0.00 17 1007.6
20260502011817 89 256 0.0 1.0 0.00 0.00 0.00 17 1007.7
20260502011730 89 256 0.0 1.0 0.00 0.00 0.00 17 1007.7
20260502011633 89 256 0.0 1.0 0.00 0.00 0.00 17 1007.7
20260502011516 89 257 0.0 1.0 0.00 0.00 0.00 17 1007.7
20260502011425 89 257 0.0 1.0 0.00 0.00 0.00 18 1007.8
20260502011347 89 257 0.0 1.0 0.00 0.00 0.00 18 1007.8
20260502011237 89 257 0.0 1.0 0.00 0.00 0.00 17 1007.8
20260502011118 89 259 0.0 1.0 0.00 0.00 0.00 17 1007.8
20260502011025 90 259 0.0 1.0 0.00 0.00 0.00 17 1007.8
20260502010933 90 259 0.0 0.0 0.00 0.00 0.00 17 1007.8
20260502010833 90 259 0.0 0.0 0.00 0.00 0.00 17 1007.8
20260502010741 90 259 0.0 0.0 0.00 0.00 0.00 17 1007.8
20260502010623 90 259 0.0 0.0 0.00 0.00 0.00 18 1007.8
20260502010545 90 258 0.0 0.0 0.00 0.00 0.00 18 1007.8
20260502010433 90 258 0.0 0.0 0.00 0.00 0.00 18 1007.8
20260502010319 90 258 0.0 0.0 0.00 0.00 0.00 18 1007.8
20260502010219 90 258 0.0 0.0 0.00 0.00 0.00 17 1007.8
20260502010129 90 258 0.0 0.0 0.00 0.00 0.00 17 1007.8
20260502010111 90 258 0.0 0.0 0.00 0.00 0.00 17 1007.8
20260502005919 90 258 0.0 0.0 0.00 0.00 0.00 17 1007.7
20260502005818 90 258 0.0 0.0 0.00 0.00 0.00 17 1007.7
20260502005727 90 258 0.0 0.0 0.00 0.00 0.00 17 1007.8
20260502005634 90 258 0.0 0.0 0.00 0.00 0.00 17 1007.7
20260502005516 90 258 0.0 0.0 0.00 0.00 0.00 17 1007.8
20260502005445 90 258 0.0 0.0 0.00 0.00 0.00 18 1007.7
20260502005327 90 258 0.0 0.0 0.00 0.00 0.00 17 1007.7
20260502005234 90 258 0.0 1.0 0.00 0.00 0.00 17 1007.7
20260502005115 90 258 0.0 3.0 0.00 0.00 0.00 17 1007.7
20260502005022 90 258 0.0 3.0 0.00 0.00 0.00 17 1007.7
20260502004951 90 258 0.0 3.0 0.00 0.00 0.00 17 1007.7
20260502004833 90 258 0.0 3.0 0.00 0.00 0.00 17 1007.7
20260502004741 90 258 0.0 3.0 0.00 0.00 0.00 17 1007.8
20260502004624 90 305 0.0 4.0 0.00 0.00 0.00 17 1007.8
20260502004526 90 305 0.0 4.0 0.00 0.00 0.00 17 1007.8
20260502004436 90 221 1.0 4.0 0.00 0.00 0.00 17 1007.8
20260502004322 90 221 0.0 4.0 0.00 0.00 0.00 18 1007.8
20260502004225 90 223 0.0 4.0 0.00 0.00 0.00 17 1007.8
20260502004132 90 224 0.0 4.0 0.00 0.00 0.00 17 1007.9
20260502004035 90 224 0.0 4.0 0.00 0.00 0.00 17 1007.8
20260502003916 90 234 0.0 4.0 0.00 0.00 0.00 18 1007.8
20260502003847 90 233 0.0 0.0 0.00 0.00 0.00 17 1007.8
20260502003727 90 234 0.0 0.0 0.00 0.00 0.00 18 1007.7
20260502003621 90 233 0.0 0.0 0.00 0.00 0.00 17 1007.8
20260502003524 90 233 0.0 0.0 0.00 0.00 0.00 17 1007.8
20260502003427 90 233 0.0 0.0 0.00 0.00 0.00 17 1007.9
20260502003337 90 233 0.0 0.0 0.00 0.00 0.00 18 1007.9
20260502003240 90 234 0.0 0.0 0.00 0.00 0.00 18 1007.8
20260502003122 90 234 0.0 0.0 0.00 0.00 0.00 18 1007.8
20260502003054 90 234 0.0 0.0 0.00 0.00 0.00 18 1007.7
20260502002935 90 234 0.0 0.0 0.00 0.00 0.00 18 1007.8
20260502002845 90 234 0.0 0.0 0.00 0.00 0.00 18 1007.8
20260502002725 90 234 0.0 0.0 0.00 0.00 0.00 18 1007.8
20260502002634 90 234 0.0 0.0 0.00 0.00 0.00 18 1007.8
20260502002536 90 234 0.0 0.0 0.00 0.00 0.00 18 1007.7
20260502002417 90 233 0.0 0.0 0.00 0.00 0.00 18 1007.8
20260502002332 90 233 0.0 0.0 0.00 0.00 0.00 18 1007.8
20260502002232 90 233 0.0 6.0 0.00 0.00 0.00 18 1007.8
20260502002142 90 233 0.0 7.0 0.00 0.00 0.00 18 1007.8
20260502002025 90 233 0.0 7.0 0.00 0.00 0.00 18 1007.8
20260502001954 90 233 0.0 7.0 0.00 0.00 0.00 20 1007.7
20260502001833 90 233 0.0 7.0 0.00 0.00 0.00 18 1007.8
20260502001739 90 233 0.0 7.0 0.00 0.00 0.00 18 1007.8
20260502001625 90 233 0.0 7.0 0.00 0.00 0.00 18 1008.0
20260502001554 90 233 0.0 7.0 0.00 0.00 0.00 18 1008.0
20260502001416 90 233 2.0 7.0 0.00 0.00 0.00 18 1007.9
20260502001318 90 231 2.0 7.0 0.00 0.00 0.00 19 1008.0
20260502001228 90 266 0.0 2.0 0.00 0.00 0.00 20 1008.0
20260502001136 90 264 0.0 3.0 0.00 0.00 0.00 20 1008.0
20260502001038 90 264 0.0 3.0 0.00 0.00 0.00 20 1007.9
20260502000918 90 264 0.0 7.0 0.00 0.00 0.00 20 1007.9
20260502000832 90 264 0.0 7.0 0.00 0.00 0.00 20 1007.8
20260502000735 90 264 0.0 7.0 0.00 0.00 0.00 20 1007.8
20260502000618 90 264 0.0 7.0 0.00 0.00 0.00 20 1007.8
20260502000520 90 264 0.0 7.0 0.00 0.00 0.00 19 1007.9
20260502000428 90 263 0.0 7.0 0.00 0.00 0.00 19 1008.0
20260502000332 90 263 1.0 7.0 0.00 0.00 0.00 19 1007.9
20260502000221 90 264 2.0 7.0 0.00 0.00 0.00 18 1008.0
20260502000129 90 266 2.0 7.0 0.00 0.00 0.00 19 1008.0
20260502000045 90 271 1.0 6.0 0.00 0.00 0.00 19 1008.0
20260501235916 90 276 1.0 6.0 0.00 0.00 0.00 19 1007.9
20260501235846 90 277 2.0 6.0 0.00 0.00 0.00 19 1007.9
20260501235754 90 278 2.0 6.0 0.00 0.00 0.00 19 1007.8
20260501235615 90 284 1.0 6.0 0.00 0.00 0.00 19 1007.8
20260501235538 90 288 1.0 6.0 0.00 0.00 0.00 19 1007.8
20260501235431 90 288 2.0 6.0 0.00 0.00 0.00 19 1007.9
20260501235353 90 289 3.0 6.0 0.00 0.00 0.00 19 1008.0
20260501235241 90 294 2.0 6.0 0.00 0.00 0.00 19 1008.0
20260501235122 90 297 1.0 6.0 0.00 0.00 0.00 19 1008.0
20260501235025 90 304 1.0 6.0 0.00 0.00 0.00 19 1008.0
20260501234927 90 304 2.0 6.0 0.00 0.00 0.00 18 1008.0
20260501234819 90 304 2.0 6.0 0.00 0.00 0.00 18 1008.1
20260501234720 90 306 3.0 6.0 0.00 0.00 0.00 18 1008.1
20260501234630 90 307 3.0 5.0 0.00 0.00 0.00 18 1008.1
20260501234533 90 308 1.0 5.0 0.00 0.00 0.00 19 1008.0
20260501234503 91 314 0.0 5.0 0.00 0.00 0.00 19 1008.0
20260501234324 91 314 2.0 6.0 0.00 0.00 0.00 18 1008.0
20260501234227 91 314 2.0 6.0 0.00 0.00 0.00 18 1008.0
20260501234133 91 317 1.0 6.0 0.00 0.00 0.00 19 1007.9
20260501234042 91 319 0.0 6.0 0.00 0.00 0.00 19 1008.0
20260501233924 91 320 0.0 6.0 0.00 0.00 0.00 19 1008.0
20260501233827 91 320 1.0 6.0 0.00 0.00 0.00 19 1008.0
20260501233737 91 321 2.0 6.0 0.00 0.00 0.00 20 1008.0
20260501233623 90 320 2.0 6.0 0.00 0.00 0.00 22 1008.0
20260501233527 90 307 2.0 6.0 0.00 0.00 0.00 19 1008.0
20260501233429 90 335 2.0 6.0 0.00 0.00 0.00 20 1008.0
20260501233338 90 232 1.0 5.0 0.00 0.00 0.00 20 1008.0
20260501233221 90 250 1.0 5.0 0.00 0.00 0.00 19 1008.0
20260501233124 90 250 1.0 7.0 0.00 0.00 0.00 19 1008.0
20260501233053 90 245 0.0 7.0 0.00 0.00 0.00 19 1008.0
20260501232937 90 248 0.0 7.0 0.00 0.00 0.00 20 1008.0
20260501232818 90 248 1.0 7.0 0.00 0.00 0.00 20 1008.0
20260501232745 90 243 1.0 7.0 0.00 0.00 0.00 19 1008.0
20260501232653 90 243 2.0 7.0 0.00 0.00 0.00 19 1008.0
20260501232533 90 239 1.0 7.0 0.00 0.00 0.00 19 1008.1
20260501232503 90 278 1.0 7.0 0.00 0.00 0.00 19 1008.2
20260501232324 90 277 2.0 7.0 0.00 0.00 0.00 19 1008.1
20260501232229 90 284 2.0 7.0 0.00 0.00 0.00 19 1008.3
20260501232138 90 224 1.0 6.0 0.00 0.00 0.00 19 1008.1
20260501232047 90 224 0.0 6.0 0.00 0.00 0.00 20 1008.2
20260501231948 90 224 0.0 7.0 0.00 0.00 0.00 19 1008.3
20260501231856 90 264 1.0 7.0 0.00 0.00 0.00 20 1008.2
20260501231804 89 265 2.0 7.0 0.00 0.00 0.00 20 1008.2
20260501231623 89 262 1.0 7.0 0.00 0.00 0.00 20 1008.2
20260501231525 89 217 0.0 7.0 0.00 0.00 0.00 20 1008.2
20260501231454 89 252 0.0 7.0 0.00 0.00 0.00 19 1008.2
20260501231325 89 252 0.0 7.0 0.00 0.00 0.00 21 1008.1
20260501231227 89 252 2.0 7.0 0.00 0.00 0.00 20 1008.2
20260501231137 89 252 2.0 7.0 0.00 0.00 0.00 20 1008.2
20260501231019 89 248 2.0 7.0 0.00 0.00 0.00 19 1008.2
20260501230922 89 249 3.0 7.0 0.00 0.00 0.00 19 1008.2
20260501230825 89 229 3.0 8.0 0.00 0.00 0.00 19 1008.2
20260501230733 90 222 4.0 8.0 0.00 0.00 0.00 20 1008.2
20260501230619 90 238 3.0 8.0 0.00 0.00 0.00 20 1008.2
20260501230548 89 282 2.0 8.0 0.00 0.00 0.00 20 1008.2
20260501230430 89 285 0.0 8.0 0.00 0.00 0.00 20 1008.3
20260501230332 89 285 0.0 8.0 0.00 0.00 0.00 21 1008.3
20260501230240 89 285 1.0 8.0 0.00 0.00 0.00 22 1008.4
20260501230122 90 278 3.0 8.0 0.00 0.00 0.00 20 1008.3
20260501230039 90 248 4.0 8.0 0.00 0.00 0.00 20 1008.4
20260501225916 90 269 3.0 8.0 0.00 0.00 0.00 20 1008.5
20260501225818 90 278 2.0 8.0 0.00 0.00 0.00 20 1008.4
20260501225748 90 335 1.0 8.0 0.00 0.00 0.00 21 1008.4
20260501225630 90 300 1.0 8.0 0.00 0.00 0.00 20 1008.4
20260501225533 90 265 2.0 8.0 0.00 0.00 0.00 20 1008.4
20260501225419 90 289 4.0 8.0 0.00 0.00 0.00 20 1008.4
20260501225329 90 246 4.0 8.0 0.00 0.00 0.00 20 1008.4
20260501225231 91 259 3.0 8.0 0.00 0.00 0.00 20 1008.3
20260501225141 91 238 2.0 7.0 0.00 0.00 0.00 20 1008.4
20260501225022 90 234 1.0 4.0 0.00 0.00 0.00 20 1008.4
20260501224923 90 243 0.0 4.0 0.00 0.00 0.00 20 1008.4
20260501224832 90 243 0.0 4.0 0.00 0.00 0.00 21 1008.4
20260501224718 90 243 0.0 4.0 0.00 0.00 0.00 21 1008.4
20260501224641 89 243 0.0 4.0 0.00 0.00 0.00 21 1008.5
20260501224528 89 241 0.0 8.0 0.00 0.00 0.00 20 1008.5
20260501224438 89 241 1.0 9.0 0.00 0.00 0.00 20 1008.6
20260501224317 89 241 1.0 9.0 0.00 0.00 0.00 20 1008.6
20260501224220 89 235 1.0 9.0 0.00 0.00 0.00 20 1008.7
20260501224130 89 246 1.0 9.0 0.00 0.00 0.00 20 1008.6
20260501224017 89 288 0.0 9.0 0.00 0.00 0.00 20 1008.6
20260501223919 90 287 1.0 9.0 0.00 0.00 0.00 20 1008.7
20260501223822 90 287 3.0 9.0 0.00 0.00 0.00 20 1008.7
20260501223730 90 305 6.0 9.0 0.00 0.00 0.00 20 1008.7
20260501223632 90 250 5.0 9.0 0.00 0.00 0.00 19 1008.7
20260501223519 90 273 1.0 8.0 0.00 0.00 0.00 20 1008.7
20260501223427 89 300 1.0 8.0 0.00 0.00 0.00 21 1008.7
20260501223329 89 288 1.0 8.0 0.00 0.00 0.00 21 1008.7
20260501223237 89 280 1.0 8.0 0.00 0.00 0.00 22 1008.7
20260501223121 88 234 1.0 9.0 0.00 0.00 0.00 21 1008.7
20260501223022 89 234 2.0 9.0 0.00 0.00 0.00 21 1008.7
20260501222930 89 236 3.0 9.0 0.00 0.00 0.00 20 1008.7
20260501222817 89 230 4.0 9.0 0.00 0.00 0.00 20 1008.7
20260501222719 89 248 3.0 9.0 0.00 0.00 0.00 20 1008.7
20260501222648 89 217 3.0 9.0 0.00 0.00 0.00 20 1008.8
20260501222529 89 224 3.0 9.0 0.00 0.00 0.00 20 1008.8
20260501222438 89 224 4.0 9.0 0.00 0.00 0.00 20 1008.7
20260501222322 89 252 4.0 9.0 0.00 0.00 0.00 19 1008.8
20260501222221 89 238 4.0 9.0 0.00 0.00 0.00 18 1008.7
20260501222131 89 259 3.0 9.0 0.00 0.00 0.00 17 1008.8
20260501222033 89 250 3.0 9.0 0.00 0.00 0.00 17 1008.9
20260501221942 89 221 3.0 9.0 0.00 0.00 0.00 18 1008.8
20260501221824 89 271 2.0 9.0 0.00 0.00 0.00 20 1008.8
20260501221730 89 216 2.0 9.0 0.00 0.00 0.00 20 1008.9
20260501221632 89 213 4.0 11.0 0.00 0.00 0.00 20 1009.0
20260501221541 89 250 3.0 11.0 0.00 0.00 0.00 21 1009.0
20260501221443 89 238 1.0 11.0 0.00 0.00 0.00 21 1008.9
20260501221335 89 238 1.0 11.0 0.00 0.00 0.00 21 1009.0
20260501221225 89 241 1.0 11.0 0.00 0.00 0.00 21 1009.0
20260501221127 89 239 2.0 11.0 0.00 0.00 0.00 21 1008.9
20260501221037 89 283 4.0 11.0 0.00 0.00 0.00 21 1008.9
20260501220938 89 233 5.0 11.0 0.00 0.00 0.00 21 1008.9
20260501220826 89 276 4.0 11.0 0.00 0.00 0.00 21 1008.9
20260501220727 89 309 1.0 8.0 0.00 0.00 0.00 21 1008.9
20260501220641 89 236 0.0 8.0 0.00 0.00 0.00 21 1008.9
20260501220523 89 235 2.0 9.0 0.00 0.00 0.00 20 1009.0
20260501220446 89 233 3.0 9.0 0.00 0.00 0.00 20 1008.9
20260501220334 90 226 3.0 9.0 0.00 0.00 0.00 20 1009.0
20260501220235 90 236 2.0 9.0 0.00 0.00 0.00 21 1009.0
20260501220117 89 224 2.0 10.0 0.00 0.00 0.00 21 1009.0
20260501220044 89 280 1.0 10.0 0.00 0.00 0.00 21 1009.0
20260501215953 89 274 3.0 10.0 0.00 0.00 0.00 22 1009.0
20260501215842 89 274 4.0 11.0 0.00 0.00 0.00 22 1009.0
20260501215744 88 233 3.0 11.0 0.00 0.00 0.00 22 1009.1
20260501215652 88 203 3.0 11.0 0.00 0.00 0.00 22 1009.2
20260501215533 88 201 4.0 11.0 0.00 0.00 0.00 22 1009.2
20260501215415 89 246 5.0 11.0 0.00 0.00 0.00 21 1009.3
20260501215330 89 245 4.0 11.0 0.00 0.00 0.00 22 1009.4
20260501215233 89 248 5.0 11.0 0.00 0.00 0.00 22 1009.3
20260501215141 89 252 5.0 11.0 0.00 0.00 0.00 22 1009.2
20260501215024 89 266 2.0 10.0 0.00 0.00 0.00 23 1009.2
20260501214925 89 273 1.0 8.0 0.00 0.00 0.00 23 1009.2
20260501214833 89 278 3.0 8.0 0.00 0.00 0.00 22 1009.3
20260501214719 89 281 4.0 10.0 0.00 0.00 0.00 22 1009.2
20260501214621 89 249 4.0 10.0 0.00 0.00 0.00 23 1009.3
20260501214525 89 249 5.0 10.0 0.00 0.00 0.00 22 1009.3
20260501214433 89 202 5.0 10.0 0.00 0.00 0.00 23 1009.3
20260501214316 89 226 2.0 10.0 0.00 0.00 0.00 24 1009.3
20260501214219 88 328 2.0 10.0 0.00 0.00 0.00 23 1009.3
20260501214132 88 245 2.0 10.0 0.00 0.00 0.00 23 1009.4
20260501214034 88 239 2.0 10.0 0.00 0.00 0.00 23 1009.4
20260501213934 88 245 3.0 10.0 0.00 0.00 0.00 23 1009.5
20260501213844 88 243 3.0 10.0 0.00 0.00 0.00 23 1009.5
20260501213725 88 230 2.0 10.0 0.00 0.00 0.00 23 1009.5
20260501213655 88 230 3.0 10.0 0.00 0.00 0.00 22 1009.5
20260501213555 89 243 3.0 11.0 0.00 0.00 0.00 23 1009.6
20260501213427 88 233 3.0 13.0 0.00 0.00 0.00 23 1009.5
20260501213350 88 273 4.0 13.0 0.00 0.00 0.00 23 1009.6
20260501213239 88 281 6.0 13.0 0.00 0.00 0.00 23 1009.6
20260501213122 88 270 4.0 13.0 0.00 0.00 0.00 23 1009.6
20260501213024 88 264 2.0 13.0 0.00 0.00 0.00 23 1009.5
20260501212933 88 263 3.0 13.0 0.00 0.00 0.00 23 1009.5
20260501212835 89 242 5.0 13.0 0.00 0.00 0.00 23 1009.5
20260501212721 89 203 4.0 13.0 0.00 0.00 0.00 23 1009.6
20260501212651 89 248 4.0 12.0 0.00 0.00 0.00 23 1009.5
20260501212533 89 206 6.0 12.0 0.00 0.00 0.00 23 1009.5
20260501212416 89 212 6.0 12.0 0.00 0.00 0.00 23 1009.5
20260501212345 89 227 4.0 10.0 0.00 0.00 0.00 22 1009.5
20260501212226 89 295 3.0 9.0 0.00 0.00 0.00 23 1009.5
20260501212136 89 236 2.0 8.0 0.00 0.00 0.00 24 1009.5
20260501212023 89 307 2.0 8.0 0.00 0.00 0.00 24 1009.6
20260501211925 89 290 1.0 8.0 0.00 0.00 0.00 23 1009.5
20260501211827 89 290 2.0 8.0 0.00 0.00 0.00 22 1009.6
20260501211735 89 323 3.0 8.0 0.00 0.00 0.00 23 1009.6
20260501211616 89 324 3.0 8.0 0.00 0.00 0.00 22 1009.6
20260501211527 89 330 2.0 10.0 0.00 0.00 0.00 23 1009.6
20260501211452 89 319 2.0 10.0 0.00 0.00 0.00 25 1009.5
20260501211340 88 328 2.0 10.0 0.00 0.00 0.00 24 1009.6
20260501211242 88 329 1.0 10.0 0.00 0.00 0.00 24 1009.7
20260501211130 88 289 0.0 10.0 0.00 0.00 0.00 24 1009.8
20260501211033 88 289 1.0 10.0 0.00 0.00 0.00 24 1009.8
20260501210935 88 289 1.0 11.0 0.00 0.00 0.00 22 1009.8
20260501210816 89 289 4.0 11.0 0.00 0.00 0.00 24 1009.9
20260501210730 89 283 4.0 11.0 0.00 0.00 0.00 23 1009.9
20260501210633 89 267 3.0 11.0 0.00 0.00 0.00 23 1009.9
20260501210542 88 308 3.0 11.0 0.00 0.00 0.00 24 1009.9
20260501210422 88 285 3.0 11.0 0.00 0.00 0.00 24 1009.9
20260501210326 88 259 2.0 11.0 0.00 0.00 0.00 24 1009.9
20260501210234 88 252 3.0 11.0 0.00 0.00 0.00 24 1009.9
20260501210118 87 250 3.0 11.0 0.00 0.00 0.00 24 1009.9
20260501210038 87 253 2.0 10.0 0.00 0.00 0.00 24 1009.9
20260501205928 87 255 3.0 10.0 0.00 0.00 0.00 24 1009.9
20260501205858 87 238 1.0 10.0 0.00 0.00 0.00 23 1009.9
20260501205719 87 250 2.0 10.0 0.00 0.00 0.00 22 1009.9
20260501205622 88 256 4.0 10.0 0.00 0.00 0.00 23 1009.9
20260501205524 88 274 6.0 10.0 0.00 0.00 0.00 23 1010.0
20260501205417 88 236 5.0 10.0 0.00 0.00 0.00 23 1010.0
20260501205318 88 260 2.0 6.0 0.00 0.00 0.00 22 1010.0
20260501205248 88 266 1.0 6.0 0.00 0.00 0.00 22 1010.0
20260501205130 88 223 0.0 6.0 0.00 0.00 0.00 22 1010.0
20260501205039 88 219 0.0 6.0 0.00 0.00 0.00 23 1010.0
20260501204921 88 219 1.0 6.0 0.00 0.00 0.00 22 1010.0
20260501204828 88 229 2.0 6.0 0.00 0.00 0.00 22 1010.0
20260501204757 88 227 1.0 7.0 0.00 0.00 0.00 23 1010.1
20260501204617 88 288 0.0 7.0 0.00 0.00 0.00 24 1010.1
20260501204527 88 289 1.0 7.0 0.00 0.00 0.00 23 1010.1
20260501204431 88 289 1.0 7.0 0.00 0.00 0.00 23 1010.2
20260501204339 88 284 2.0 7.0 0.00 0.00 0.00 23 1010.2
20260501204222 88 284 1.0 7.0 0.00 0.00 0.00 23 1010.2
20260501204129 88 278 1.0 7.0 0.00 0.00 0.00 23 1010.1
20260501204032 88 277 2.0 7.0 0.00 0.00 0.00 23 1010.1
20260501203941 88 285 3.0 7.0 0.00 0.00 0.00 22 1010.2
20260501203823 89 221 1.0 7.0 0.00 0.00 0.00 22 1010.1
20260501203725 88 276 1.0 10.0 0.00 0.00 0.00 22 1010.1
20260501203627 88 274 1.0 10.0 0.00 0.00 0.00 23 1010.2
20260501203521 88 253 0.0 10.0 0.00 0.00 0.00 25 1010.2
20260501203424 87 249 0.0 10.0 0.00 0.00 0.00 24 1010.2
20260501203326 87 249 0.0 10.0 0.00 0.00 0.00 25 1010.2
20260501203236 87 249 2.0 10.0 0.00 0.00 0.00 24 1010.3
20260501203118 87 255 4.0 10.0 0.00 0.00 0.00 23 1010.3
20260501203020 87 236 4.0 10.0 0.00 0.00 0.00 23 1010.3
20260501202953 87 280 3.0 10.0 0.00 0.00 0.00 24 1010.3
20260501202833 87 248 3.0 8.0 0.00 0.00 0.00 24 1010.2
20260501202735 87 248 3.0 8.0 0.00 0.00 0.00 23 1010.2
20260501202616 88 254 1.0 7.0 0.00 0.00 0.00 23 1010.1
20260501202526 88 254 2.0 7.0 0.00 0.00 0.00 23 1010.2
20260501202429 88 254 2.0 7.0 0.00 0.00 0.00 23 1010.3
20260501202315 89 261 1.0 4.0 0.00 0.00 0.00 23 1010.3
20260501202225 88 288 1.0 6.0 0.00 0.00 0.00 23 1010.2
20260501202128 88 288 0.0 6.0 0.00 0.00 0.00 23 1010.2
20260501202030 88 288 0.0 6.0 0.00 0.00 0.00 28 1010.3
20260501201940 88 321 1.0 6.0 0.00 0.00 0.00 28 1010.2
20260501201822 87 322 0.0 6.0 0.00 0.00 0.00 24 1010.3
20260501201729 87 320 0.0 6.0 0.00 0.00 0.00 24 1010.2
20260501201658 88 320 1.0 6.0 0.00 0.00 0.00 24 1010.3
20260501201540 88 320 2.0 6.0 0.00 0.00 0.00 23 1010.2
20260501201428 88 321 2.0 6.0 0.00 0.00 0.00 23 1010.3
20260501201331 88 323 1.0 5.0 0.00 0.00 0.00 24 1010.3
20260501201234 88 300 1.0 7.0 0.00 0.00 0.00 23 1010.3
20260501201121 88 198 1.0 10.0 0.00 0.00 0.00 25 1010.2
20260501201050 87 191 0.0 10.0 0.00 0.00 0.00 25 1010.3
20260501200931 87 191 1.0 10.0 0.00 0.00 0.00 24 1010.3
20260501200841 87 190 1.0 10.0 0.00 0.00 0.00 26 1010.3
20260501200723 86 184 1.0 10.0 0.00 0.00 0.00 25 1010.2
20260501200626 86 184 1.0 10.0 0.00 0.00 0.00 24 1010.3
20260501200556 86 250 3.0 10.0 0.00 0.00 0.00 24 1010.3
20260501200421 87 258 5.0 10.0 0.00 0.00 0.00 24 1010.4
20260501200324 87 273 3.0 7.0 0.00 0.00 0.00 24 1010.3
20260501200235 87 326 1.0 7.0 0.00 0.00 0.00 25 1010.3
20260501200134 87 217 1.0 7.0 0.00 0.00 0.00 25 1010.3
20260501200036 87 217 1.0 7.0 0.00 0.00 0.00 25 1010.3
20260501195924 87 221 1.0 7.0 0.00 0.00 0.00 24 1010.4
20260501195833 87 230 2.0 7.0 0.00 0.00 0.00 24 1010.4
20260501195720 88 235 2.0 7.0 0.00 0.00 0.00 24 1010.5
20260501195623 88 277 2.0 7.0 0.00 0.00 0.00 23 1010.5
20260501195553 89 278 2.0 7.0 0.00 0.00 0.00 25 1010.5
20260501195434 88 244 1.0 6.0 0.00 0.00 0.00 26 1010.5
20260501195335 88 345 0.0 5.0 0.00 0.00 0.00 28 1010.5
20260501195244 87 212 0.0 3.0 0.00 0.00 0.00 29 1010.5
20260501195130 86 212 0.0 3.0 0.00 0.00 0.00 29 1010.5
20260501195038 86 212 0.0 3.0 0.00 0.00 0.00 26 1010.5
20260501194940 85 212 0.0 4.0 0.00 0.00 0.00 28 1010.5
20260501194848 85 212 0.0 7.0 0.00 0.00 0.00 26 1010.6
20260501194728 85 212 0.0 7.0 0.00 0.00 0.00 26 1010.5
20260501194631 85 212 0.0 7.0 0.00 0.00 0.00 28 1010.5
20260501194541 85 212 1.0 7.0 0.00 0.00 0.00 25 1010.6
20260501194447 85 212 1.0 7.0 0.00 0.00 0.00 26 1010.6
20260501194336 86 212 0.0 7.0 0.00 0.00 0.00 26 1010.5
20260501194217 85 212 0.0 7.0 0.00 0.00 0.00 28 1010.7
20260501194118 85 212 2.0 7.0 0.00 0.00 0.00 26 1010.7
20260501194019 85 211 2.0 7.0 0.00 0.00 0.00 26 1010.7
20260501193930 85 209 1.0 5.0 0.00 0.00 0.00 26 1010.7
20260501193831 85 267 1.0 5.0 0.00 0.00 0.00 27 1010.8
20260501193718 85 267 2.0 5.0 0.00 0.00 0.00 26 1010.8
20260501193648 85 267 1.0 5.0 0.00 0.00 0.00 25 1010.8
20260501193529 86 267 0.0 5.0 0.00 0.00 0.00 26 1010.8
20260501193439 86 267 0.0 5.0 0.00 0.00 0.00 26 1010.8
20260501193327 86 267 0.0 5.0 0.00 0.00 0.00 26 1010.9
20260501193230 86 267 1.0 5.0 0.00 0.00 0.00 26 1010.9
20260501193116 87 267 2.0 5.0 0.00 0.00 0.00 26 1010.8
20260501193018 87 267 1.0 5.0 0.00 0.00 0.00 26 1010.8
20260501192928 87 259 1.0 5.0 0.00 0.00 0.00 30 1010.8
20260501192831 86 257 1.0 5.0 0.00 0.00 0.00 27 1010.7
20260501192733 86 254 1.0 4.0 0.00 0.00 0.00 26 1010.8
20260501192616 86 254 0.0 0.0 0.00 0.00 0.00 27 1010.7
20260501192529 85 254 0.0 0.0 0.00 0.00 0.00 28 1010.7
20260501192431 85 254 0.0 0.0 0.00 0.00 0.00 27 1010.7
20260501192340 85 254 0.0 0.0 0.00 0.00 0.00 29 1010.8
20260501192221 85 254 0.0 0.0 0.00 0.00 0.00 29 1010.8
20260501192124 85 254 0.0 0.0 0.00 0.00 0.00 27 1010.8
20260501192034 85 254 0.0 0.0 0.00 0.00 0.00 27 1010.8
20260501191920 85 254 0.0 0.0 0.00 0.00 0.00 27 1010.8
20260501191823 85 254 0.0 0.0 0.00 0.00 0.00 29 1010.8
20260501191725 84 254 0.0 0.0 0.00 0.00 0.00 31 1010.9
20260501191635 84 254 0.0 0.0 0.00 0.00 0.00 29 1011.0
20260501191518 84 254 0.0 0.0 0.00 0.00 0.00 29 1011.1
20260501191427 83 254 0.0 0.0 0.00 0.00 0.00 29 1011.1
20260501191328 83 254 0.0 0.0 0.00 0.00 0.00 28 1011.2
20260501191235 84 254 0.0 1.0 0.00 0.00 0.00 30 1011.2
20260501191145 84 254 0.0 1.0 0.00 0.00 0.00 29 1011.2
20260501191047 84 254 0.0 1.0 0.00 0.00 0.00 29 1011.3
20260501190935 84 254 0.0 1.0 0.00 0.00 0.00 27 1011.3
20260501190818 84 254 0.0 1.0 0.00 0.00 0.00 27 1011.3
20260501190742 85 254 0.0 1.0 0.00 0.00 0.00 27 1011.3
20260501190631 85 254 0.0 1.0 0.00 0.00 0.00 27 1011.2
20260501190537 86 255 0.0 6.0 0.00 0.00 0.00 26 1011.2
20260501190447 86 255 0.0 9.0 0.00 0.00 0.00 27 1011.2
20260501190328 86 253 0.0 9.0 0.00 0.00 0.00 27 1011.2
20260501190238 86 253 0.0 9.0 0.00 0.00 0.00 27 1011.3
20260501190120 85 252 0.0 9.0 0.00 0.00 0.00 30 1011.4
20260501190034 85 252 0.0 9.0 0.00 0.00 0.00 31 1011.5
20260501185936 84 252 0.0 9.0 0.00 0.00 0.00 31 1011.5
20260501185819 84 252 2.0 9.0 0.00 0.00 0.00 28 1011.4
20260501185722 84 248 4.0 9.0 0.00 0.00 0.00 27 1011.4
20260501185625 84 219 4.0 9.0 0.00 0.00 0.00 28 1011.4
20260501185535 84 231 2.0 6.0 0.00 0.00 0.00 28 1011.4
20260501185417 84 221 0.0 4.0 0.00 0.00 0.00 28 1011.4
20260501185330 84 221 0.0 6.0 0.00 0.00 0.00 28 1011.5
20260501185232 84 217 0.0 6.0 0.00 0.00 0.00 28 1011.4
20260501185134 84 217 0.0 6.0 0.00 0.00 0.00 28 1011.4
20260501185043 84 217 0.0 6.0 0.00 0.00 0.00 28 1011.4
20260501184925 85 217 0.0 6.0 0.00 0.00 0.00 29 1011.6
20260501184828 84 217 0.0 6.0 0.00 0.00 0.00 28 1011.6
20260501184734 84 210 1.0 6.0 0.00 0.00 0.00 28 1011.6
20260501184616 84 209 2.0 6.0 0.00 0.00 0.00 28 1011.6
20260501184525 84 214 1.0 6.0 0.00 0.00 0.00 28 1011.6
20260501184427 84 198 1.0 6.0 0.00 0.00 0.00 29 1011.7
20260501184336 84 198 1.0 6.0 0.00 0.00 0.00 29 1011.7
20260501184219 83 203 1.0 6.0 0.00 0.00 0.00 29 1011.7
20260501184124 83 212 0.0 6.0 0.00 0.00 0.00 29 1011.8
20260501184034 83 214 1.0 6.0 0.00 0.00 0.00 28 1011.8
20260501183937 84 215 3.0 6.0 0.00 0.00 0.00 28 1011.7
20260501183819 84 229 2.0 6.0 0.00 0.00 0.00 28 1011.8
20260501183729 83 249 2.0 6.0 0.00 0.00 0.00 30 1011.7
20260501183632 83 248 1.0 6.0 0.00 0.00 0.00 32 1011.7
20260501183517 82 248 1.0 6.0 0.00 0.00 0.00 30 1011.7
20260501183447 82 248 1.0 6.0 0.00 0.00 0.00 30 1011.7
20260501183356 82 248 2.0 6.0 0.00 0.00 0.00 29 1011.7
20260501183216 82 248 1.0 6.0 0.00 0.00 0.00 30 1011.6
20260501183118 82 234 0.0 6.0 0.00 0.00 0.00 29 1011.6
20260501183021 82 249 1.0 6.0 0.00 0.00 0.00 29 1011.8
20260501182929 82 249 1.0 6.0 0.00 0.00 0.00 29 1011.8
20260501182831 82 261 1.0 6.0 0.00 0.00 0.00 30 1011.7
20260501182716 82 25 0.0 5.0 0.00 0.00 0.00 28 1011.8
20260501182646 82 25 1.0 5.0 0.00 0.00 0.00 28 1011.9
20260501182527 83 29 2.0 5.0 0.00 0.00 0.00 29 1011.9
20260501182437 83 30 2.0 5.0 0.00 0.00 0.00 28 1012.0
20260501182319 83 40 1.0 5.0 0.00 0.00 0.00 29 1012.0
20260501182222 83 42 1.0 5.0 0.00 0.00 0.00 29 1012.0
20260501182134 83 43 2.0 5.0 0.00 0.00 0.00 28 1011.9
20260501182017 84 41 1.0 5.0 0.00 0.00 0.00 28 1011.9
20260501181918 84 44 1.0 5.0 0.00 0.00 0.00 28 1011.9
20260501181828 85 46 0.0 5.0 0.00 0.00 0.00 28 1012.0
20260501181732 85 46 0.0 5.0 0.00 0.00 0.00 31 1012.0
20260501181640 84 46 0.0 5.0 0.00 0.00 0.00 33 1011.9
20260501181541 84 46 1.0 5.0 0.00 0.00 0.00 32 1012.0
20260501181454 84 46 1.0 5.0 0.00 0.00 0.00 30 1011.9
20260501181403 84 47 0.0 5.0 0.00 0.00 0.00 29 1011.9
20260501181224 84 12 0.0 5.0 0.00 0.00 0.00 31 1011.9
20260501181126 83 12 0.0 5.0 0.00 0.00 0.00 31 1012.0
20260501181030 83 12 0.0 5.0 0.00 0.00 0.00 34 1011.9
20260501180938 83 359 0.0 5.0 0.00 0.00 0.00 32 1011.9